Location: Unspecified
(0.0000°N, 0.0000°E)
Time: 02:22:37
(UTC+00:00)

Courier 1B Rocket - Pass Details

Date: 08 October 2020
Orbit: 920 x 1202 km, 28.2° (Epoch: 25 October)

Event Time Altitude Azimuth Distance (km) Brightness Sun altitude
Rises 20:44:31 0° 224° (SW) 4,056 8.8 -44.0°
Reaches altitude 10° 20:47:37 10° 216° (SW) 3,113 8.0 -44.7°
Enters shadow 20:49:36 18° 207° (SSW) 2,564 7.4 -45.2°
